{"data":{"norad_id":63741,"epoch":"2026-09-20T20:35:40.132032Z","epoch_age_seconds":173862,"freshness":"STALE","line1":"1 63741U 25088T   26263.85810338 -.00000142  00000+0  10371-4 0  9992","line2":"2 63741  51.9011 310.0125 0000262  61.0707 299.0282 14.79927191 76963","mean_motion":14.79927191,"eccentricity":2.62e-5,"inclination_deg":51.9011,"raan_deg":310.0125,"arg_perigee_deg":61.0707,"mean_anomaly_deg":299.0282,"bstar":1.0371e-5,"rev_number":7696,"period_min":97.302084099622,"perigee_km":629.37036530517,"apogee_km":629.73756831183,"semimajor_km":7007.6909668085,"source":"CELESTRAK","updated_at":"2026-09-22T09:00:29.320354Z"}}